EW3511 Weather Reports


Display with metric or nautical units.
time (UTC)temp
F
wind
direction
speed
MPH
gust
MPH
rain 1hr
in
rain 24hr
in
rain mn
in
humidity
%
barometer
mb
20260905191120 66 243 3.0 8.0 0.00 0.22 0.22 85 1023.9
20260905185042 67 187 3.0 8.0 0.00 0.22 0.22 85 1023.7
20260905184101 67 235 5.0 11.0 0.00 0.22 0.22 85 1023.6
20260905183042 67 219 5.0 10.0 0.00 0.22 0.22 86 1023.5
20260905182102 66 198 3.0 8.0 0.00 0.22 0.22 88 1023.3
20260905181043 66 185 3.0 7.0 0.00 0.22 0.22 89 1023.2
20260905180044 66 206 2.0 6.0 0.00 0.22 0.22 88 1023.1
20260905175044 67 216 2.0 7.0 0.00 0.22 0.22 87 1023.2
20260905174104 67 185 2.0 5.0 0.00 0.22 0.22 87 1023.1
20260905173045 67 202 2.0 5.0 0.00 0.22 0.22 86 1022.9
20260905172045 68 213 3.0 6.0 0.00 0.22 0.22 85 1022.9
20260905171114 69 206 2.0 6.0 0.00 0.22 0.22 83 1022.9
20260905170046 69 224 3.0 7.0 0.00 0.22 0.22 83 1022.9
20260905165046 69 191 3.0 8.0 0.00 0.22 0.22 82 1022.9
20260905164107 70 212 3.0 7.0 0.00 0.22 0.22 81 1022.9
20260905163047 70 210 2.0 7.0 0.00 0.22 0.22 79 1022.7
20260905162048 70 213 2.0 9.0 0.00 0.22 0.22 79 1022.8
20260905161048 70 228 5.0 11.0 0.00 0.22 0.22 79 1022.8
20260905160108 70 244 4.0 9.0 0.00 0.22 0.22 79 1022.8
20260905155049 70 278 3.0 8.0 0.00 0.22 0.22 78 1022.7
20260905154109 70 262 5.0 10.0 0.00 0.22 0.22 78 1022.8
20260905153104 70 259 4.0 9.0 0.00 0.22 0.22 78 1022.8
20260905152051 69 235 6.0 14.0 0.00 0.22 0.22 79 1022.9
20260905151050 70 216 4.0 9.0 0.00 0.22 0.22 76 1022.8
20260905150059 70 240 5.0 13.0 0.00 0.23 0.22 75 1022.9
20260905145051 69 242 6.0 14.0 0.00 0.23 0.22 75 1022.9
20260905144052 69 224 4.0 10.0 0.00 0.23 0.22 76 1022.9
20260905143052 69 251 5.0 11.0 0.00 0.23 0.22 77 1022.9
20260905142053 69 236 5.0 9.0 0.00 0.23 0.22 78 1022.9
20260905140553 67 226 5.0 11.0 0.00 0.23 0.22 80 1023.2
20260905135554 68 239 5.0 10.0 0.00 0.23 0.22 81 1023.2
20260905134554 67 208 5.0 13.0 0.00 0.23 0.22 82 1023.3
20260905133555 66 241 4.0 10.0 0.00 0.23 0.22 83 1023.4
20260905132615 65 265 4.0 8.0 0.00 0.23 0.22 87 1023.4
20260905131555 64 219 4.0 11.0 0.00 0.23 0.22 89 1023.3
20260905130555 63 247 3.0 10.0 0.00 0.23 0.22 91 1023.3
20260905125556 63 251 4.0 13.0 0.00 0.23 0.22 92 1023.4
20260905124557 63 226 6.0 11.0 0.00 0.23 0.22 92 1023.4
20260905123557 63 224 4.0 8.0 0.00 0.23 0.22 94 1023.3
20260905122557 63 222 3.0 6.0 0.00 0.23 0.22 96 1023.2
20260905121558 63 173 3.0 6.0 0.00 0.23 0.22 95 1023.0
20260905120558 62 226 3.0 6.0 0.00 0.23 0.22 94 1023.1
20260905115618 62 238 3.0 8.0 0.00 0.23 0.22 93 1023.3
20260905114719 62 156 1.0 5.0 0.00 0.23 0.22 95 1023.1
20260905113600 62 207 3.0 7.0 0.01 0.23 0.22 96 1023.0
20260905112620 62 198 2.0 6.0 0.01 0.23 0.22 96 1023.1
20260905111620 61 171 2.0 7.0 0.01 0.23 0.22 97 1023.1
20260905110615 61 210 2.0 5.0 0.01 0.23 0.22 96 1023.2
20260905105601 60 193 3.0 7.0 0.01 0.23 0.22 95 1022.9
20260905104602 60 144 2.0 5.0 0.02 0.23 0.22 97 1023.1
20260905103604 60 261 2.0 5.0 0.05 0.22 0.21 98 1023.1
20260905102606 59 183 2.0 6.0 0.07 0.22 0.21 98 1023.1
20260905101603 59 142 1.0 3.0 0.12 0.22 0.21 99 1023.0
20260905100604 58 159 1.0 5.0 0.15 0.22 0.21 99 1023.0
20260905095625 59 147 1.0 3.0 0.15 0.22 0.21 99 1023.1
20260905094624 58 144 1.0 3.0 0.14 0.21 0.20 99 1023.1
20260905093605 59 177 3.0 7.0 0.10 0.17 0.16 99 1023.2
20260905092607 59 170 2.0 6.0 0.08 0.15 0.14 98 1023.0
20260905091618 60 180 1.0 5.0 0.03 0.10 0.09 94 1022.8
20260905090606 60 183 3.0 5.0 0.00 0.07 0.06 93 1022.9
20260905085607 61 143 1.0 2.0 0.00 0.07 0.06 92 1022.9
20260905084607 61 161 4.0 6.0 0.00 0.07 0.06 91 1022.6
20260905083647 60 167 3.0 7.0 0.00 0.07 0.06 91 1022.7
20260905082608 60 168 1.0 3.0 0.00 0.07 0.06 95 1022.7
20260905081648 60 93 0.0 2.0 0.00 0.07 0.06 94 1022.6
20260905080608 59 117 2.0 3.0 0.00 0.07 0.06 94 1022.6
20260905075609 59 125 1.0 2.0 0.00 0.07 0.06 95 1022.5
20260905074537 59 111 2.0 3.0 0.00 0.07 0.06 94 1022.4
20260905073558 59 153 3.0 5.0 0.00 0.07 0.06 94 1022.2
20260905072559 58 142 2.0 5.0 0.01 0.07 0.06 94 1022.3
20260905071539 58 105 0.0 2.0 0.01 0.07 0.06 97 1022.2
20260905070539 58 139 0.0 3.0 0.01 0.07 0.06 98 1022.2
20260905065540 57 173 3.0 6.0 0.03 0.07 0.06 98 1022.0
20260905064600 57 164 4.0 7.0 0.03 0.07 0.06 98 1021.7
20260905063541 57 170 7.0 10.0 0.03 0.07 0.06 98 1021.7
20260905062542 58 178 5.0 8.0 0.02 0.06 0.05 96 1022.2
20260905061542 58 173 3.0 7.0 0.02 0.06 0.05 96 1022.1
20260905060543 58 152 3.0 6.0 0.03 0.06 0.05 95 1022.0
20260905055542 58 152 2.0 5.0 0.02 0.04 0.03 95 1022.1
20260905054543 58 137 2.0 5.0 0.03 0.04 0.03 95 1022.1
20260905053544 58 157 3.0 6.0 0.03 0.04 0.03 95 1022.1
20260905052543 58 83 0.0 2.0 0.03 0.04 0.03 95 1021.8
20260905051604 58 52 2.0 8.0 0.03 0.04 0.03 93 1021.6
20260905050544 59 42 4.0 10.0 0.02 0.03 0.02 88 1021.8
20260905045605 63 10 8.0 20.0 0.01 0.02 0.01 75 1021.1
20260905044545 64 29 4.0 9.0 0.00 0.01 0.00 68 1020.4
20260905043545 65 44 5.0 9.0 0.00 0.01 0.00 68 1020.4
20260905042546 65 22 3.0 9.0 0.00 0.01 0.00 70 1020.1
20260905041546 65 32 2.0 8.0 0.00 0.01 0.00 74 1019.7
20260905040547 66 26 3.0 8.0 0.00 0.01 0.00 76 1019.3
20260905035547 66 27 6.0 10.0 0.00 0.01 0.00 76 1018.9
20260905034548 67 29 7.0 15.0 0.00 0.01 0.00 76 1018.5
20260905033548 67 31 7.0 18.0 0.00 0.01 0.00 76 1018.5
20260905032548 69 16 7.0 15.0 0.00 0.01 0.00 73 1018.0
20260905031548 70 48 2.0 5.0 0.00 0.01 0.00 73 1017.7
20260905030549 70 93 1.0 2.0 0.00 0.01 0.00 74 1017.5
20260905025550 70 129 0.0 1.0 0.00 0.01 0.00 74 1017.6
20260905024550 70 144 1.0 2.0 0.00 0.01 0.00 74 1017.5
20260905023610 71 189 2.0 3.0 0.00 0.01 0.00 69 1017.4
20260905022551 71 109 0.0 1.0 0.00 0.01 0.00 68 1017.1
20260905021611 72 308 1.0 5.0 0.00 0.01 0.00 66 1017.2
20260905020552 72 211 2.0 5.0 0.00 0.01 0.00 65 1017.1
20260905015552 71 315 2.0 7.0 0.00 0.01 0.00 67 1017.0
20260905014553 71 347 3.0 6.0 0.00 0.01 0.00 67 1016.9
20260905013553 72 74 1.0 3.0 0.00 0.01 0.00 65 1016.9
20260905012553 73 64 1.0 3.0 0.00 0.01 0.00 64 1017.0
20260905011554 73 58 3.0 6.0 0.00 0.01 0.00 62 1017.1
20260905010554 74 289 4.0 9.0 0.00 0.01 0.00 60 1016.9
20260905005555 75 14 4.0 10.0 0.00 0.01 0.00 59 1016.9
20260905004555 75 208 3.0 7.0 0.00 0.01 0.00 58 1016.7
20260905003555 75 244 2.0 9.0 0.00 0.01 0.00 58 1016.7
20260905002557 75 241 4.0 8.0 0.00 0.01 0.00 58 1016.6
20260905001556 76 215 4.0 8.0 0.00 0.01 0.00 57 1016.5
20260905000557 76 256 4.0 9.0 0.00 0.01 0.00 57 1016.4
20260904235557 76 249 5.0 10.0 0.00 0.01 0.00 56 1016.4
20260904234558 76 244 4.0 9.0 0.00 0.01 0.00 56 1016.5
20260904233558 76 260 3.0 10.0 0.00 0.01 0.00 55 1016.5
20260904232558 77 234 4.0 9.0 0.00 0.01 0.00 54 1016.4
20260904231559 77 232 3.0 8.0 0.00 0.01 0.00 54 1016.4
20260904230600 77 224 4.0 9.0 0.00 0.01 0.00 53 1016.3
20260904225600 77 250 5.0 13.0 0.00 0.01 0.00 52 1016.3
20260904224640 77 264 4.0 11.0 0.00 0.01 0.00 52 1016.3
20260904223601 77 223 4.0 9.0 0.00 0.01 0.00 52 1016.3
20260904222601 77 232 5.0 9.0 0.00 0.01 0.00 51 1016.0
20260904221601 77 259 4.0 10.0 0.00 0.01 0.00 50 1016.1
20260904220602 77 220 3.0 9.0 0.00 0.01 0.00 50 1016.1
20260904215622 78 259 3.0 8.0 0.00 0.01 0.01 50 1016.0
20260904214603 78 259 4.0 8.0 0.00 0.01 0.01 49 1015.9
20260904213603 77 235 3.0 8.0 0.00 0.01 0.01 50 1016.0
20260904212603 78 249 4.0 8.0 0.00 0.01 0.01 49 1015.8
20260904211604 78 280 4.0 9.0 0.00 0.01 0.01 49 1015.9
20260904210604 78 266 3.0 9.0 0.00 0.01 0.01 49 1015.7
20260904205604 78 251 5.0 13.0 0.00 0.01 0.01 48 1015.6
20260904204605 78 238 4.0 10.0 0.00 0.01 0.01 48 1015.6
20260904203538 78 252 4.0 10.0 0.00 0.01 0.01 48 1015.7
20260904202538 78 265 6.0 11.0 0.00 0.01 0.01 48 1015.6
20260904201538 78 257 6.0 13.0 0.00 0.01 0.01 47 1015.6
20260904200539 78 251 4.0 9.0 0.00 0.01 0.01 48 1015.5
20260904195539 78 244 3.0 8.0 0.00 0.01 0.01 48 1015.5
20260904194540 78 203 3.0 8.0 0.00 0.01 0.01 48 1015.5
20260904193541 78 247 3.0 8.0 0.00 0.01 0.01 48 1015.5
20260904192621 78 250 4.0 7.0 0.00 0.01 0.01 48 1015.5
20260904191541 78 230 2.0 6.0 0.00 0.01 0.01 48 1015.4